Location: Praha
(50.0830°N, 14.4670°E)
Time: 08:00:47
(UTC+02:00)

ISS - Pass Details

Date: 28 June 2022
Orbit: 414 x 420 km, 51.6° (Epoch: 02 July)

Event Time Altitude Azimuth Distance (km) Brightness Sun altitude
Exits shadow 02:35:40 - 132° (SE) 2,254 -0.3 -13.9°
Enters shadow 03:32:41 -72° 245° (WSW) 12,553 3.6 -9.7°
Maximum altitude 04:11:56 20° 142° (SE) 1,036 -1.8 -5.8°
